﻿測定場所 (Monitoring sites),日付 (Measurement date),時間 (Measurement time),線量率 最大値 (max) μGy/h,線量率 最小値 (min) μGy/h,線量率 平均値 (average) μGy/h,
足立 (Adachi),2015-07-05,23:01～24:00,0.0405,0.0355,0.0369,
足立 (Adachi),2015-07-05,22:01～23:00,0.0410,0.0353,0.0372,
足立 (Adachi),2015-07-05,21:01～22:00,0.0406,0.0353,0.0372,
足立 (Adachi),2015-07-05,20:01～21:00,0.0393,0.0351,0.0369,
足立 (Adachi),2015-07-05,19:01～20:00,0.0403,0.0352,0.0371,
足立 (Adachi),2015-07-05,18:01～19:00,0.0408,0.0339,0.0370,
足立 (Adachi),2015-07-05,17:01～18:00,0.0425,0.0359,0.0385,
足立 (Adachi),2015-07-05,16:01～17:00,0.0465,0.0385,0.0417,
足立 (Adachi),2015-07-05,15:01～16:00,0.0512,0.0427,0.0454,
足立 (Adachi),2015-07-05,14:01～15:00,0.0473,0.0383,0.0440,
足立 (Adachi),2015-07-05,13:01～14:00,0.0419,0.0359,0.0387,
足立 (Adachi),2015-07-05,12:01～13:00,0.0407,0.0349,0.0373,
足立 (Adachi),2015-07-05,11:01～12:00,0.0420,0.0364,0.0388,
足立 (Adachi),2015-07-05,10:01～11:00,0.0455,0.0386,0.0416,
足立 (Adachi),2015-07-05,09:01～10:00,0.0471,0.0414,0.0439,
足立 (Adachi),2015-07-05,08:01～09:00,0.0469,0.0401,0.0428,
足立 (Adachi),2015-07-05,07:01～08:00,0.0464,0.0393,0.0430,
足立 (Adachi),2015-07-05,06:01～07:00,0.0469,0.0396,0.0431,
足立 (Adachi),2015-07-05,05:01～06:00,0.0490,0.0391,0.0431,
足立 (Adachi),2015-07-05,04:01～05:00,0.0457,0.0388,0.0423,
足立 (Adachi),2015-07-05,03:01～04:00,0.0455,0.0390,0.0422,
足立 (Adachi),2015-07-05,02:01～03:00,0.0454,0.0386,0.0418,
足立 (Adachi),2015-07-05,01:01～02:00,0.0451,0.0374,0.0410,
足立 (Adachi),2015-07-05,00:01～01:00,0.0440,0.0369,0.0404,
足立 (Adachi),2015-07-04,23:01～24:00,0.0429,0.0365,0.0397,
足立 (Adachi),2015-07-04,22:01～23:00,0.0427,0.0360,0.0394,
足立 (Adachi),2015-07-04,21:01～22:00,0.0415,0.0361,0.0389,
足立 (Adachi),2015-07-04,20:01～21:00,0.0417,0.0366,0.0386,
足立 (Adachi),2015-07-04,19:01～20:00,0.0431,0.0365,0.0391,
足立 (Adachi),2015-07-04,18:01～19:00,0.0429,0.0366,0.0397,
足立 (Adachi),2015-07-04,17:01～18:00,0.0435,0.0363,0.0405,
足立 (Adachi),2015-07-04,16:01～17:00,0.0439,0.0375,0.0407,
足立 (Adachi),2015-07-04,15:01～16:00,0.0430,0.0374,0.0402,
足立 (Adachi),2015-07-04,14:01～15:00,0.0411,0.0357,0.0382,
足立 (Adachi),2015-07-04,13:01～14:00,0.0406,0.0357,0.0375,
足立 (Adachi),2015-07-04,12:01～13:00,0.0400,0.0357,0.0372,
足立 (Adachi),2015-07-04,11:01～12:00,0.0401,0.0352,0.0376,
足立 (Adachi),2015-07-04,10:01～11:00,0.0414,0.0352,0.0379,
足立 (Adachi),2015-07-04,09:01～10:00,0.0421,0.0367,0.0390,
足立 (Adachi),2015-07-04,08:01～09:00,0.0435,0.0365,0.0401,
足立 (Adachi),2015-07-04,07:01～08:00,0.0417,0.0358,0.0390,
足立 (Adachi),2015-07-04,06:01～07:00,0.0440,0.0363,0.0399,
足立 (Adachi),2015-07-04,05:01～06:00,0.0466,0.0406,0.0438,
足立 (Adachi),2015-07-04,04:01～05:00,0.0436,0.0351,0.0402,
足立 (Adachi),2015-07-04,03:01～04:00,0.0408,0.0357,0.0374,
足立 (Adachi),2015-07-04,02:01～03:00,0.0424,0.0354,0.0379,
足立 (Adachi),2015-07-04,01:01～02:00,0.0443,0.0371,0.0406,
足立 (Adachi),2015-07-04,00:01～01:00,0.0524,0.0412,0.0464,
足立 (Adachi),2015-07-03,23:01～24:00,0.0538,0.0470,0.0500,
足立 (Adachi),2015-07-03,22:01～23:00,0.0532,0.0410,0.0470,
足立 (Adachi),2015-07-03,21:01～22:00,0.0456,0.0378,0.0420,
足立 (Adachi),2015-07-03,20:01～21:00,0.0478,0.0391,0.0431,
足立 (Adachi),2015-07-03,19:01～20:00,0.0476,0.0382,0.0423,
足立 (Adachi),2015-07-03,18:01～19:00,0.0441,0.0364,0.0392,
足立 (Adachi),2015-07-03,17:01～18:00,0.0402,0.0344,0.0369,
足立 (Adachi),2015-07-03,16:01～17:00,0.0410,0.0361,0.0383,
足立 (Adachi),2015-07-03,15:01～16:00,0.0443,0.0369,0.0403,
足立 (Adachi),2015-07-03,14:01～15:00,0.0515,0.0408,0.0457,
足立 (Adachi),2015-07-03,13:01～14:00,0.0689,0.0478,0.0589,
足立 (Adachi),2015-07-03,12:01～13:00,0.0701,0.0536,0.0620,
足立 (Adachi),2015-07-03,11:01～12:00,0.0587,0.0480,0.0530,
足立 (Adachi),2015-07-03,10:01～11:00,0.0586,0.0484,0.0532,
足立 (Adachi),2015-07-03,09:01～10:00,0.0589,0.0477,0.0517,
足立 (Adachi),2015-07-03,08:01～09:00,0.0539,0.0443,0.0499,
足立 (Adachi),2015-07-03,07:01～08:00,0.0522,0.0430,0.0477,
足立 (Adachi),2015-07-03,06:01～07:00,0.0512,0.0410,0.0462,
足立 (Adachi),2015-07-03,05:01～06:00,0.0466,0.0411,0.0438,
足立 (Adachi),2015-07-03,04:01～05:00,0.0471,0.0413,0.0441,
足立 (Adachi),2015-07-03,03:01～04:00,0.0458,0.0391,0.0425,
足立 (Adachi),2015-07-03,02:01～03:00,0.0433,0.0361,0.0395,
足立 (Adachi),2015-07-03,01:01～02:00,0.0428,0.0362,0.0393,
足立 (Adachi),2015-07-03,00:01～01:00,0.0435,0.0377,0.0406,
足立 (Adachi),2015-07-02,23:01～24:00,0.0433,0.0358,0.0398,
足立 (Adachi),2015-07-02,22:01～23:00,0.0418,0.0357,0.0381,
足立 (Adachi),2015-07-02,21:01～22:00,0.0414,0.0363,0.0384,
足立 (Adachi),2015-07-02,20:01～21:00,0.0412,0.0362,0.0385,
足立 (Adachi),2015-07-02,19:01～20:00,0.0407,0.0363,0.0381,
足立 (Adachi),2015-07-02,18:01～19:00,0.0412,0.0361,0.0383,
足立 (Adachi),2015-07-02,17:01～18:00,0.0401,0.0362,0.0381,
足立 (Adachi),2015-07-02,16:01～17:00,0.0413,0.0357,0.0381,
足立 (Adachi),2015-07-02,15:01～16:00,0.0409,0.0356,0.0381,
足立 (Adachi),2015-07-02,14:01～15:00,0.0410,0.0357,0.0379,
足立 (Adachi),2015-07-02,13:01～14:00,0.0405,0.0360,0.0383,
足立 (Adachi),2015-07-02,12:01～13:00,0.0428,0.0357,0.0382,
足立 (Adachi),2015-07-02,11:01～12:00,0.0443,0.0370,0.0405,
足立 (Adachi),2015-07-02,10:01～11:00,0.0471,0.0392,0.0425,
足立 (Adachi),2015-07-02,09:01～10:00,0.0471,0.0369,0.0407,
足立 (Adachi),2015-07-02,08:01～09:00,0.0403,0.0357,0.0377,
足立 (Adachi),2015-07-02,07:01～08:00,0.0409,0.0354,0.0373,
足立 (Adachi),2015-07-02,06:01～07:00,0.0401,0.0344,0.0366,
足立 (Adachi),2015-07-02,05:01～06:00,0.0415,0.0358,0.0377,
足立 (Adachi),2015-07-02,04:01～05:00,0.0418,0.0357,0.0379,
足立 (Adachi),2015-07-02,03:01～04:00,0.0408,0.0355,0.0379,
足立 (Adachi),2015-07-02,02:01～03:00,0.0408,0.0359,0.0382,
足立 (Adachi),2015-07-02,01:01～02:00,0.0418,0.0353,0.0382,
足立 (Adachi),2015-07-02,00:01～01:00,0.0407,0.0356,0.0376,
足立 (Adachi),2015-07-01,23:01～24:00,0.0403,0.0356,0.0377,
足立 (Adachi),2015-07-01,22:01～23:00,0.0416,0.0351,0.0379,
足立 (Adachi),2015-07-01,21:01～22:00,0.0412,0.0361,0.0381,
足立 (Adachi),2015-07-01,20:01～21:00,0.0397,0.0354,0.0374,
足立 (Adachi),2015-07-01,19:01～20:00,0.0415,0.0352,0.0376,
足立 (Adachi),2015-07-01,18:01～19:00,0.0390,0.0349,0.0371,
足立 (Adachi),2015-07-01,17:01～18:00,0.0408,0.0355,0.0375,
足立 (Adachi),2015-07-01,16:01～17:00,0.0418,0.0361,0.0385,
足立 (Adachi),2015-07-01,15:01～16:00,0.0438,0.0371,0.0402,
足立 (Adachi),2015-07-01,14:01～15:00,0.0439,0.0377,0.0412,
足立 (Adachi),2015-07-01,13:01～14:00,0.0470,0.0384,0.0420,
足立 (Adachi),2015-07-01,12:01～13:00,0.0479,0.0415,0.0449,
足立 (Adachi),2015-07-01,11:01～12:00,0.0525,0.0426,0.0465,
足立 (Adachi),2015-07-01,10:01～11:00,0.0582,0.0489,0.0534,
足立 (Adachi),2015-07-01,09:01～10:00,0.0560,0.0490,0.0527,
足立 (Adachi),2015-07-01,08:01～09:00,0.0534,0.0399,0.0465,
足立 (Adachi),2015-07-01,07:01～08:00,0.0491,0.0416,0.0452,
足立 (Adachi),2015-07-01,06:01～07:00,0.0485,0.0418,0.0451,
足立 (Adachi),2015-07-01,05:01～06:00,0.0473,0.0410,0.0439,
足立 (Adachi),2015-07-01,04:01～05:00,0.0554,0.0424,0.0481,
足立 (Adachi),2015-07-01,03:01～04:00,0.0599,0.0503,0.0537,
足立 (Adachi),2015-07-01,02:01～03:00,0.0560,0.0462,0.0511,
足立 (Adachi),2015-07-01,01:01～02:00,0.0490,0.0406,0.0442,
足立 (Adachi),2015-07-01,00:01～01:00,0.0511,0.0418,0.0468,
足立 (Adachi),2015-06-30,23:01～24:00,0.0496,0.0432,0.0461,
足立 (Adachi),2015-06-30,22:01～23:00,0.0487,0.0404,0.0448,
足立 (Adachi),2015-06-30,21:01～22:00,0.0429,0.0362,0.0391,
足立 (Adachi),2015-06-30,20:01～21:00,0.0432,0.0364,0.0386,
足立 (Adachi),2015-06-30,19:01～20:00,0.0417,0.0363,0.0388,
足立 (Adachi),2015-06-30,18:01～19:00,0.0414,0.0360,0.0382,
足立 (Adachi),2015-06-30,17:01～18:00,0.0431,0.0357,0.0388,
足立 (Adachi),2015-06-30,16:01～17:00,0.0415,0.0357,0.0382,
足立 (Adachi),2015-06-30,15:01～16:00,0.0418,0.0361,0.0384,
足立 (Adachi),2015-06-30,14:01～15:00,0.0416,0.0360,0.0383,
足立 (Adachi),2015-06-30,13:01～14:00,0.0415,0.0363,0.0384,
足立 (Adachi),2015-06-30,12:01～13:00,0.0431,0.0361,0.0383,
足立 (Adachi),2015-06-30,11:01～12:00,0.0405,0.0358,0.0378,
足立 (Adachi),2015-06-30,10:01～11:00,0.0422,0.0359,0.0381,
足立 (Adachi),2015-06-30,09:01～10:00,0.0410,0.0361,0.0383,
足立 (Adachi),2015-06-30,08:01～09:00,0.0413,0.0359,0.0377,
足立 (Adachi),2015-06-30,07:01～08:00,0.0418,0.0355,0.0380,
足立 (Adachi),2015-06-30,06:01～07:00,0.0400,0.0357,0.0374,
足立 (Adachi),2015-06-30,05:01～06:00,0.0411,0.0359,0.0381,
足立 (Adachi),2015-06-30,04:01～05:00,0.0412,0.0360,0.0380,
足立 (Adachi),2015-06-30,03:01～04:00,0.0413,0.0363,0.0384,
足立 (Adachi),2015-06-30,02:01～03:00,0.0425,0.0357,0.0384,
足立 (Adachi),2015-06-30,01:01～02:00,0.0410,0.0361,0.0383,
足立 (Adachi),2015-06-30,00:01～01:00,0.0419,0.0361,0.0384,
足立 (Adachi),2015-06-29,23:01～24:00,0.0409,0.0362,0.0380,
足立 (Adachi),2015-06-29,22:01～23:00,0.0420,0.0356,0.0384,
足立 (Adachi),2015-06-29,21:01～22:00,0.0414,0.0363,0.0382,
足立 (Adachi),2015-06-29,20:01～21:00,0.0425,0.0359,0.0383,
足立 (Adachi),2015-06-29,19:01～20:00,0.0409,0.0359,0.0383,
足立 (Adachi),2015-06-29,18:01～19:00,0.0420,0.0361,0.0387,
足立 (Adachi),2015-06-29,17:01～18:00,0.0411,0.0365,0.0387,
足立 (Adachi),2015-06-29,16:01～17:00,0.0425,0.0363,0.0387,
足立 (Adachi),2015-06-29,15:01～16:00,0.0426,0.0353,0.0380,
足立 (Adachi),2015-06-29,14:01～15:00,0.0416,0.0351,0.0383,
足立 (Adachi),2015-06-29,13:01～14:00,0.0412,0.0360,0.0381,
足立 (Adachi),2015-06-29,12:01～13:00,0.0416,0.0360,0.0382,
足立 (Adachi),2015-06-29,11:01～12:00,0.0423,0.0358,0.0383,
足立 (Adachi),2015-06-29,10:01～11:00,0.0405,0.0357,0.0380,
足立 (Adachi),2015-06-29,09:01～10:00,0.0409,0.0352,0.0378,
足立 (Adachi),2015-06-29,08:01～09:00,0.0409,0.0357,0.0375,
足立 (Adachi),2015-06-29,07:01～08:00,0.0412,0.0357,0.0378,
足立 (Adachi),2015-06-29,06:01～07:00,0.0403,0.0361,0.0379,
足立 (Adachi),2015-06-29,05:01～06:00,0.0409,0.0359,0.0378,
足立 (Adachi),2015-06-29,04:01～05:00,0.0419,0.0352,0.0378,
足立 (Adachi),2015-06-29,03:01～04:00,0.0421,0.0359,0.0378,
足立 (Adachi),2015-06-29,02:01～03:00,0.0418,0.0359,0.0383,
足立 (Adachi),2015-06-29,01:01～02:00,0.0401,0.0360,0.0377,
足立 (Adachi),2015-06-29,00:01～01:00,0.0419,0.0361,0.0380,
